x

Portage Canal, Mi (pclm4) Weather Station

7:40pm - Tue 23rd Sep 2014 All times are CDT. -5 hours from GMT.

  • Wind
    6mph, 15mph gusts
  • Air Temp 59°f
  • Sea Pressure 1022.7mb
  • Portage Canal, Mi
  • Portage Canal, Mi

More Historic Weather Station data

Upgrade to MSW Pro to gain access to the past 30 days of data for over 8000 Wavebouys and Weather Stations around the globe.

Join Pro

Comparision Forecast

View Surf forecast
   
Tue 09/23 7:40pm 6 15 mph 1022.7mb 59f
7:30pm 6 16 mph 1022.7mb 59f
7:20pm 6 13 mph 1022.7mb 60f
7:10pm 7 11 mph 1022.7mb 60f
7:00pm 3 9 mph 1022.7mb 60f
6:40pm 5 10 mph 1023mb 62f
6:30pm 6 11 mph 1022.7mb 63f
6:20pm 5 9 mph 1022.7mb 64f
6:10pm 5 10 mph 1023mb 65f
6:00pm 6 14 mph 1023mb 66f
5:40pm 5 9 mph 1023mb 68f
5:30pm 1 2 mph 1023mb 67f
5:20pm  -  3 mph 1023mb 66f
5:10pm 3 5 mph 1023mb 66f
5:00pm  -  5 mph 1023mb 67f
4:40pm 5
mph
1023mb 66f
4:30pm 5
mph
1023mb 66f
4:20pm 2 3 mph 1023mb 67f
4:10pm 2 3 mph 1023.4mb 65f
4:00pm  -  2 mph 1023.4mb 65f
3:40pm  -  2 mph 1023.4mb 65f
3:30pm  -  2 mph 1023.4mb 64f
3:20pm 1 2 mph 1023.4mb 65f
3:10pm  -  3 mph 1023.7mb 65f
3:00pm 1 3 mph 1023.7mb 64f
2:40pm 2 6 mph 1023.7mb 65f
2:30pm 2 6 mph 1023.7mb 64f
2:20pm 3 8 mph 1023.7mb 64f
2:10pm 3 6 mph 1024mb 64f
2:00pm 2 6 mph 1024mb 64f
1:40pm 2 7 mph 1024mb 65f
1:30pm 2 7 mph 1024mb 65f
1:20pm 2 7 mph 1024mb 65f
1:10pm  -  8 mph 1024mb 66f
1:00pm 2 7 mph 1024mb 66f
12:40pm 2 6 mph 1024mb 65f
12:30pm 3 6 mph 1024mb 64f
12:20pm 3 9 mph 1024mb 64f
12:10pm 5 7 mph 1024mb 65f
12:00pm 5 9 mph 1024mb 64f
11:40am 6 9 mph 1024mb 64f
11:30am 5 9 mph 1024mb 63f
11:20am 5 9 mph 1024mb 63f
11:10am 5 9 mph 1024mb 64f
11:00am 5 9 mph 1024mb 64f
10:40am 5 8 mph 1024mb 63f
10:30am 5 9 mph 1024mb 63f
10:20am 5 9 mph 1024mb 62f
10:10am 5 9 mph 1024mb 62f
10:00am 6 9 mph 1024mb 63f
9:40am 6 10 mph 1023.7mb 63f
9:30am 5 10 mph 1023.7mb 62f
9:20am 6 11 mph 1023.7mb 63f
9:10am 5 11 mph 1023.4mb 62f
9:00am 6 13 mph 1023.4mb 62f
8:40am 8 14 mph 1023.4mb 61f
8:30am 6 10 mph 1023mb 61f
8:20am 6 10 mph 1023mb 60f
8:10am 5 9 mph 1023mb 59f
8:00am 5 8 mph 1023mb 58f
7:40am 6 9 mph 1022.7mb 57f
7:30am 3 7 mph 1022.7mb 55f
7:20am 5 8 mph 1022.7mb 55f
7:10am 5 7 mph 1022.7mb 56f
7:00am 3 8 mph 1022.7mb 56f
6:40am 3 8 mph 1022.4mb 55f
6:30am 5 7 mph 1022mb 56f
6:20am 3 8 mph 1022mb 56f
6:10am 6 10 mph 1022mb 56f
6:00am 5 8 mph 1022mb 56f
5:40am 3 10 mph 1022mb 58f
5:30am 6 9 mph 1021.7mb 57f
5:20am 7 10 mph 1021.7mb 58f
5:10am 6 9 mph 1021.7mb 57f
5:00am 3 8 mph 1021.7mb 57f
4:40am 5 13 mph 1021.3mb 59f
4:30am 8 13 mph 1021.3mb 60f
4:20am 9 14 mph 1021.3mb 60f
4:10am 8 14 mph 1021.3mb 60f
4:00am 7 13 mph 1021.3mb 60f
3:40am 8 15 mph 1021mb 60f
3:30am 7 18 mph 1021mb 60f
3:20am 7 15 mph 1021mb 60f
3:10am 8 16 mph 1021mb 60f
3:00am 9 16 mph 1020.7mb 59f
2:40am 10 17 mph 1020.7mb 59f
2:30am 9 18 mph 1020.7mb 59f
2:20am 9 17 mph 1020.7mb 59f
2:10am 10 18 mph 1020.7mb 59f
2:00am 10 18 mph 1020.3mb 59f
1:40am 10 18 mph 1020.3mb 59f
1:30am 10 18 mph 1020.3mb 59f
1:20am 10 17 mph 1020.3mb 59f
1:10am 11 22 mph 1020mb 60f
1:00am 9 22 mph 1020mb 60f
12:40am 10 20 mph 1019.6mb 60f
12:30am 11 18 mph 1019.6mb 60f
12:20am 11 23 mph 1019.6mb 60f
12:10am 11 20 mph 1019.6mb 60f
12:00am 11 21 mph 1019.3mb 60f
Mon 09/22 11:40pm 10 17 mph 1019.3mb 60f
11:30pm 11 21 mph 1019mb 60f
11:20pm 10 18 mph 1019.3mb 60f
11:10pm 9 15 mph 1019mb 60f
11:00pm 9 17 mph 1019mb 60f
10:40pm 9 20 mph 1019mb 61f
10:30pm 10 17 mph 1019mb 61f
10:20pm 10 21 mph 1019mb 62f
10:10pm 13 21 mph 1019mb 62f
10:00pm 10 18 mph 1018.6mb 62f
9:40pm 11 18 mph 1018.6mb 63f
9:30pm 10 18 mph 1018.6mb 63f
9:20pm 10 17 mph 1018.6mb 63f
9:10pm 8 17 mph 1018.6mb 63f
9:00pm 8 17 mph 1018.6mb 63f
8:40pm 9 18 mph 1018.6mb 62f
8:30pm 10 16 mph 1018.6mb 62f
8:20pm 9 15 mph 1018.6mb 60f
8:10pm 8 14 mph 1018.6mb 60f
8:00pm 8 14 mph 1018.6mb 60f
7:50pm 8 15 mph 1018.6mb 60f
7:40pm 8 14 mph 1018.6mb 60f
7:30pm 8 17 mph 1018.3mb 59f
7:20pm 8 15 mph 1018.3mb 59f
7:10pm 10 17 mph 1018.3mb 59f
7:00pm 9 15 mph 1018.3mb 59f
6:50pm 10 18 mph 1018.3mb 59f
6:40pm 10 18 mph 1018.3mb 60f
6:30pm 9 17 mph 1017.9mb 60f
6:20pm 10 17 mph 1018.3mb 60f
6:10pm 11 21 mph 1018.3mb 60f
6:00pm 11 17 mph 1018.3mb 60f
5:50pm 10 22 mph 1018.3mb 61f
5:40pm 10 18 mph 1018.3mb 61f
5:30pm 10 21 mph 1018.3mb 62f
5:20pm 10 17 mph 1018.3mb 62f
5:10pm 9 18 mph 1018.3mb 62f
5:00pm 8 16 mph 1018.3mb 62f
4:50pm 10 17 mph 1018.3mb 62f
4:40pm 10 22 mph 1018.3mb 62f
4:30pm 8 18 mph 1018.6mb 61f
4:20pm 11 20 mph 1018.6mb 61f
4:10pm 10 18 mph 1018.6mb 60f
4:00pm 9 17 mph 1018.6mb 60f
3:50pm 10 17 mph 1019mb 60f
3:40pm 8 17 mph 1019mb 60f
3:30pm 9 17 mph 1019mb 60f
3:20pm 10 17 mph 1019mb 60f
3:10pm 9 16 mph 1019mb 60f
3:00pm 10 18 mph 1019.3mb 59f
2:50pm 9 17 mph 1019.3mb 58f
2:40pm 9 16 mph 1019.3mb 59f
2:30pm 9 18 mph 1019.3mb 58f
2:20pm 9 18 mph 1019.6mb 58f
2:10pm 9 17 mph 1019.6mb 58f
2:00pm 9 17 mph 1019.6mb 58f
1:50pm 9 17 mph 1019.6mb 58f
1:40pm 9 17 mph 1020mb 58f
1:30pm 8 16 mph 1020mb 57f
1:20pm 9 18 mph 1020mb 57f
1:10pm 8 17 mph 1020mb 58f
1:00pm 9 20 mph 1020.3mb 57f
12:50pm 10 18 mph 1020.3mb 56f
12:40pm 10 17 mph 1020.3mb 56f
12:30pm 9 16 mph 1020.3mb 56f
12:20pm 9 17 mph 1020.3mb 56f
12:10pm 10 17 mph 1020.7mb 56f
12:00pm 9 17 mph 1020.7mb 55f
11:50am 8 17 mph 1020.7mb 55f
11:40am 7 15 mph 1020.7mb 55f
11:30am 8 16 mph 1020.7mb 56f
11:20am 7 17 mph 1020.7mb 56f
11:10am 10 17 mph 1020.7mb 55f
11:00am 9 17 mph 1021mb 55f
10:50am 8 15 mph 1021mb 54f
10:40am 7 15 mph 1020.7mb 55f
10:30am 6 15 mph 1021mb 56f
10:20am 7 13 mph 1021mb 55f
10:10am 6 11 mph 1021mb 55f
10:00am 7 14 mph 1021mb 53f
9:50am 6 11 mph 1021mb 53f
9:40am 5 13 mph 1021mb 53f
9:30am 6 10 mph 1021mb 53f
9:20am 6 11 mph 1021mb 54f
9:10am 6 11 mph 1021mb 54f
9:00am 2 7 mph 1021mb 54f
8:50am 3 9 mph 1021mb 54f
8:40am 3 11 mph 1021mb 54f
8:30am 5 9 mph 1021mb 53f
8:20am 3 8 mph 1020.7mb 53f
8:10am 5 11 mph 1021mb 52f
8:00am 3 9 mph 1021mb 51f
7:50am 5 10 mph 1021mb 51f
7:40am 5 10 mph 1021mb 51f
7:30am 6 9 mph 1021mb 51f
7:20am 6 10 mph 1020.7mb 50f
7:10am 6 13 mph 1020.7mb 51f
7:00am 7 13 mph 1020.7mb 51f
6:50am 6 13 mph 1020.7mb 51f
6:40am 8 14 mph 1020.3mb 51f
6:30am 8 14 mph 1020.3mb 51f
6:20am 5 9 mph 1020.3mb 50f
6:10am 5 11 mph 1020.3mb 50f
6:00am 7 11 mph 1020.7mb 50f
5:50am 6 9 mph 1020.3mb 49f
5:40am 6 9 mph 1020.7mb 49f
5:30am 5 8 mph 1020.3mb 49f
5:20am 6 9 mph 1020.3mb 49f
5:10am 3 7 mph 1020.3mb 48f
5:00am 5 8 mph 1020.3mb 48f
4:50am 5 9 mph 1020.3mb 48f
4:40am 5 8 mph 1020.3mb 48f
4:30am 5 8 mph 1020.3mb 47f
4:20am 5 8 mph 1020.3mb 47f
4:10am 3 7 mph 1020.3mb 46f
4:00am 6 9 mph 1020mb 46f
3:50am 6 8 mph 1020mb 45f
3:40am 3 8 mph 1020mb 45f
3:30am 5 7 mph 1020.3mb 44f
3:20am 3 7 mph 1020.3mb 44f
3:10am 5 7 mph 1020mb 44f
3:00am 5 7 mph 1020mb 44f
2:50am 5 8 mph 1020.3mb 44f
2:40am 5 8 mph 1020.3mb 44f
2:30am 5 9 mph 1020mb 44f
2:20am 5 7 mph 1020.3mb 44f
2:10am 3 7 mph 1020.3mb 43f
2:00am 5 7 mph 1020.3mb 43f
1:50am 3 7 mph 1020.3mb 43f
1:40am 3 7 mph 1020.3mb 43f
1:30am 5 8 mph 1020.3mb 43f
1:20am 5 8 mph 1020.3mb 43f
1:10am 3 8 mph 1020.3mb 43f
1:00am 5 8 mph 1020.3mb 43f
12:50am 5 7 mph 1020.7mb 43f
12:40am 5 7 mph 1020.7mb 42f
12:30am 6 8 mph 1020.7mb 42f
12:20am 5 8 mph 1020.7mb 42f
12:10am 5 8 mph 1020.7mb 42f
12:00am 5 7 mph 1020.7mb 42f
Sun 09/21 11:50pm 5 7 mph 1020.7mb 41f
11:40pm 3 8 mph 1020.7mb 41f
11:30pm 5 6 mph 1021mb 40f
11:20pm 3 7 mph 1021mb 40f
11:10pm 3 7 mph 1021mb 40f
11:00pm 3 5 mph 1021mb 40f
10:50pm 3 6 mph 1021mb 39f
10:40pm 3 5 mph 1021mb 39f
10:30pm 3 5 mph 1021mb 39f
10:20pm 3 5 mph 1021.3mb 39f
10:10pm 3 5 mph 1021.3mb 38f
10:00pm 3 5 mph 1021.3mb 39f
9:50pm 3 5 mph 1021.3mb 39f
9:40pm 3 5 mph 1021.3mb 38f
9:30pm 3 5 mph 1021.3mb 38f
9:20pm 3 5 mph 1021.3mb 38f
9:10pm 2 3 mph 1021.7mb 38f
9:00pm 3
mph
1021.7mb 38f
8:50pm 2 3 mph 1021.7mb 38f
8:40pm 3 5 mph 1021.7mb 38f
8:30pm 3
mph
1021.7mb 39f
8:20pm 3
mph
1021.7mb 39f
8:10pm 2 3 mph 1021.7mb 39f
8:00pm 2 3 mph 1021.7mb 39f
7:50pm 2 3 mph 1021.3mb 39f
7:40pm 2 3 mph 1021.3mb 40f
7:30pm 3
mph
1021mb 40f
7:20pm 2
mph
1021mb 41f
7:10pm 2
mph
1021mb 41f
7:00pm 1 2 mph 1021mb 42f
6:50pm  -  1 mph 1021mb 43f
6:40pm  -  1 mph 1021mb 44f
6:30pm  -  3 mph 1020.7mb 47f
6:20pm 1 3 mph 1020.7mb 49f
6:10pm 2 3 mph 1020.7mb 48f
6:00pm  -  3 mph 1020.7mb 47f
5:50pm 2 3 mph 1020.7mb 49f
5:40pm 3 5 mph 1020.7mb 50f
5:30pm 3 5 mph 1020.3mb 50f
5:20pm 3 6 mph 1020.3mb 51f
5:10pm 5 6 mph 1020.3mb 51f
5:00pm 3 6 mph 1020mb 51f
4:50pm 2 6 mph 1020mb 51f
4:40pm 6 7 mph 1020mb 51f
4:30pm 5 8 mph 1020mb 51f
4:20pm 5 7 mph 1020mb 51f
4:10pm 5 8 mph 1019.6mb 51f
4:00pm 5 8 mph 1019.6mb 51f
3:50pm 3 7 mph 1019.6mb 51f
3:40pm 6 8 mph 1019.3mb 51f
3:30pm 6 8 mph 1019.3mb 51f
3:20pm 6 9 mph 1019.3mb 51f
3:10pm 6 9 mph 1019.3mb 50f
3:00pm 6 10 mph 1019.3mb 50f
2:50pm 8 10 mph 1019.3mb 50f
2:40pm 9 11 mph 1019.3mb 51f
2:30pm 8 11 mph 1019.3mb 50f
2:20pm 8 13 mph 1019.3mb 50f
2:10pm 9 16 mph 1019mb 49f
2:00pm 11 15 mph 1019mb 49f
1:50pm 8 14 mph 1019mb 49f
1:40pm 10 15 mph 1019mb 48f
1:30pm 14 16 mph 1019mb 48f
1:20pm 13 17 mph 1018.6mb 48f
1:10pm 14 18 mph 1019mb 48f
1:00pm 16 20 mph 1018.6mb 48f
12:50pm 16 21 mph 1018.6mb 48f
12:40pm 17 21 mph 1018.6mb 48f
12:30pm 16 22 mph 1018.3mb 49f
12:20pm 17 21 mph 1018.3mb 49f
12:10pm 18 23 mph 1018.3mb 49f
12:00pm 16 24 mph 1017.9mb 48f
11:50am 18 24 mph 1017.9mb 48f
11:40am 22 26 mph 1017.9mb 48f
11:30am 20 26 mph 1017.9mb 48f
11:20am 20 26 mph 1017.9mb 48f
11:10am 18 26 mph 1017.6mb 48f
11:00am 18 26 mph 1017.9mb 48f
10:50am 21 25 mph 1017.6mb 47f
10:40am 21 28 mph 1017.3mb 47f
10:30am 16 28 mph 1017.3mb 47f
10:20am 15 21 mph 1016.9mb 47f
10:10am 15 28 mph 1016.9mb 47f
10:00am 22 26 mph 1016.6mb 47f
9:50am 17 25 mph 1016.6mb 47f
9:40am 16 24 mph 1016.3mb 46f
9:30am 17 26 mph 1016.3mb 46f
9:20am 16 25 mph 1016.3mb 47f
9:10am 18 26 mph 1015.9mb 46f
9:00am 21 31 mph 1015.6mb 46f
8:50am 20 29 mph 1015.6mb 46f
8:40am 24 30 mph 1015.2mb 46f
8:30am 23 31 mph 1015.2mb 46f
8:20am 24 30 mph 1014.9mb 46f
8:12am 23 29 mph 1014.6mb 46f
8:10am 24 29 mph 1014.6mb 46f
8:00am 25 31 mph 1014.2mb 46f
7:50am 23 29 mph 1014.2mb 46f
7:40am 24 29 mph 1013.9mb 46f
7:30am 22 30 mph 1013.9mb 46f
7:20am 25 31 mph 1013.5mb 46f
7:10am 24 30 mph 1013.2mb 46f
7:09am 21 30 mph 1013.2mb 47f
7:00am 21 28 mph 1012.9mb 47f
6:50am 20 25 mph 1012.9mb 47f
6:40am 15 24 mph 1012.5mb 47f
6:30am 20 24 mph 1012.5mb 47f
6:20am 17 26 mph 1012.2mb 47f
6:10am 18 26 mph 1012.2mb 47f
6:00am 18 26 mph 1011.9mb 47f
5:50am 22 31 mph 1011.5mb 48f
5:40am 21 31 mph 1011.2mb 48f
5:30am 25 30 mph 1011.2mb 49f
5:29am 22 30 mph 1011.2mb 49f
5:20am 16 25 mph 1010.8mb 49f
5:10am 15 22 mph 1010.5mb 49f
5:00am 17 21 mph 1010.5mb 49f
4:50am 15 18 mph 1010.2mb 49f
4:40am 13 17 mph 1010.2mb 49f
4:30am 14 17 mph 1010.2mb 49f
4:20am 9 18 mph 1009.8mb 49f
4:10am 14 21 mph 1009.5mb 49f
4:00am 7 17 mph 1009.5mb 49f
3:50am 9 16 mph 1009.1mb 49f
3:40am 8 17 mph 1009.1mb 49f
3:30am 10 16 mph 1008.8mb 49f
3:20am 9 14 mph 1008.8mb 49f
3:10am 8 17 mph 1008.5mb 49f
3:00am 8 20 mph 1008.5mb 50f
2:50am 13 18 mph 1008.5mb 50f
2:40am 9 16 mph 1008.1mb 51f
2:30am 8 13 mph 1008.1mb 51f
2:20am 7 13 mph 1007.8mb 51f
2:10am 7 17 mph 1007.5mb 51f
2:00am 10 17 mph 1007.5mb 51f
1:50am 10 14 mph 1007.5mb 51f
1:40am 8 13 mph 1007.5mb 52f
1:30am 5 7 mph 1007.1mb 51f
1:20am 2 6 mph 1007.1mb 51f
1:10am 2 9 mph 1007.1mb 51f
1:00am 2 10 mph 1007.1mb 51f
12:50am 6 9 mph 1007.1mb 51f
12:40am 6 9 mph 1007.1mb 51f
12:30am 7 10 mph 1007.1mb 51f
12:20am 6 8 mph 1006.8mb 52f
12:10am 2 10 mph 1006.8mb 52f
12:00am 6 10 mph 1006.8mb 52f
Sat 09/20 11:50pm 5 8 mph 1007.1mb 52f
11:40pm 2 8 mph 1007.1mb 52f
11:30pm 2 6 mph 1007.1mb 52f
11:20pm 3 5 mph 1007.1mb 52f
11:10pm 2 5 mph 1007.1mb 52f
11:00pm 3 7 mph 1007.1mb 52f
10:50pm 3 6 mph 1007.1mb 53f
10:40pm 3 5 mph 1007.1mb 52f
10:30pm 3 6 mph 1007.1mb 52f
10:20pm 3 6 mph 1007.1mb 52f
10:10pm 3 5 mph 1007.1mb 52f
10:00pm  -  2 mph 1007.1mb 52f
9:50pm 2
mph
1007.1mb 52f
9:40pm  -  1 mph 1006.8mb 52f
9:30pm  -  2 mph 1006.8mb 52f
9:20pm  -  3 mph 1007.1mb 52f
9:10pm  -  2 mph 1006.8mb 53f
9:00pm 1 2 mph 1006.8mb 53f
8:50pm 2 6 mph 1006.4mb 53f
8:40pm  -  2 mph 1006.8mb 52f
8:30pm 1 2 mph 1006.8mb 52f
8:20pm 1 2 mph 1006.8mb 52f
8:10pm  -  2 mph 1006.8mb 52f
8:00pm  -  1 mph 1007.1mb 52f
7:50pm  -  2 mph 1007.5mb 53f
7:40pm  -  3 mph 1007.5mb 53f
7:30pm  -  2 mph 1007.1mb 53f
7:20pm 2 5 mph 1006.8mb 53f
7:10pm  -  2 mph 1006.8mb 53f
7:00pm 2 6 mph 1006.8mb 53f
6:50pm 2 3 mph 1006.8mb 53f
6:40pm  -  2 mph 1006.4mb 53f
6:30pm  -  3 mph 1006.8mb 54f
6:20pm 2 5 mph 1006.8mb 53f
6:10pm 2 6 mph 1006.8mb 53f
6:00pm 3 6 mph 1006.8mb 53f
5:50pm 2 3 mph 1006.8mb 54f
5:40pm  -  3 mph 1006.4mb 54f
5:30pm  -  3 mph 1006.4mb 54f
5:20pm 3 5 mph 1006.1mb 54f
5:10pm 2 6 mph 1006.1mb 55f
5:00pm 3 6 mph 1006.1mb 55f
4:50pm 2 8 mph 1006.1mb 55f
4:40pm 3 9 mph 1006.1mb 55f
4:30pm 6 11 mph 1006.1mb 55f
4:20pm 7 13 mph 1006.1mb 54f
4:10pm 8 13 mph 1006.1mb 54f
4:00pm 7 13 mph 1006.1mb 54f
3:50pm 8 13 mph 1005.8mb 54f
3:40pm 6 10 mph 1005.8mb 54f
3:30pm 5 8 mph 1005.4mb 55f
3:20pm 6 10 mph 1005.4mb 54f
3:10pm 7 13 mph 1005.4mb 55f
3:00pm 6 13 mph 1005.4mb 55f
2:50pm 8 11 mph 1005.4mb 55f
2:40pm 8 14 mph 1005.4mb 56f
2:30pm 10 14 mph 1005.4mb 56f
2:20pm 8 14 mph 1005.4mb 56f
2:10pm 9 14 mph 1005.1mb 56f
2:00pm 6 15 mph 1005.1mb 56f
1:50pm 9 14 mph 1004.7mb 56f
1:40pm 7 13 mph 1004.7mb 57f
1:30pm 7 13 mph 1004.4mb 56f
1:20pm 6 14 mph 1004.4mb 56f
1:10pm 7 14 mph 1004.7mb 57f
1:00pm 8 13 mph 1004.4mb 56f
12:50pm 7 11 mph 1004.7mb 56f
12:40pm 5 10 mph 1004.4mb 57f
12:30pm 5 14 mph 1004.4mb 57f
12:20pm 9 17 mph 1004.4mb 56f
12:10pm 9 15 mph 1004.4mb 56f
12:00pm 6 15 mph 1004.1mb 56f
11:50am 9 15 mph 1004.1mb 55f
11:40am 8 13 mph 1003.7mb 55f
11:30am 8 14 mph 1003.7mb 55f
11:20am 7 14 mph 1003.4mb 55f
11:10am 7 15 mph 1003.4mb 55f
11:00am 7 16 mph 1003.4mb 55f
10:50am 8 15 mph 1003mb 54f
10:40am 7 15 mph 1003mb 54f
10:30am 9 15 mph 1003mb 55f
10:20am 9 17 mph 1002.7mb 55f
10:10am 9 15 mph 1002.7mb 56f
10:00am 10 17 mph 1002.4mb 56f
9:50am 9 15 mph 1002mb 57f
9:40am 9 17 mph 1002mb 57f
9:30am 8 15 mph 1002mb 57f
9:20am 9 16 mph 1002mb 58f
9:10am 9 16 mph 1002mb 57f
9:00am 8 13 mph 1001.7mb 58f
8:50am 8 13 mph 1001.7mb 56f
8:40am 5 9 mph 1001.7mb 56f
8:30am 5 9 mph 1001.7mb 56f
8:20am 8 13 mph 1001.7mb 56f
8:10am 6 10 mph 1001.7mb 56f
8:00am 5 9 mph 1001.4mb 56f
7:50am 3 6 mph 1001.7mb 57f
7:40am 1 2 mph 1001.7mb 58f
7:30am  -  1 mph 1001.4mb 57f
7:20am 1 3 mph 1001.4mb 58f
7:10am 1 2 mph 1001.4mb 58f
7:00am  -  2 mph 1001.4mb 60f
6:50am  -  2 mph 1001.4mb 61f
6:40am 2 6 mph 1001.4mb 62f
6:30am  -  3 mph 1001mb 63f
6:20am  -  6 mph 1001mb 64f
6:10am 2 6 mph 1001mb 64f
6:00am 3 7 mph 1001mb 64f
5:50am 3 9 mph 1001.4mb 64f
5:40am 3 8 mph 1001.4mb 63f
5:30am 5 8 mph 1001.4mb 63f
5:20am 5 7 mph 1001.4mb 62f
5:10am 3 6 mph 1001.4mb 62f
5:00am 2 5 mph 1001.4mb 61f
4:50am 3 5 mph 1001.7mb 61f
4:40am 2 5 mph 1002mb 61f
4:30am 3 6 mph 1001.7mb 61f
4:20am 2 3 mph 1002mb 61f
4:10am  -  2 mph 1002mb 61f
4:00am 1 3 mph 1002mb 61f
3:50am 1 5 mph 1002.4mb 61f
3:40am 2 3 mph 1002mb 60f
3:30am 2 3 mph 1002.4mb 59f
3:20am 1 2 mph 1002.4mb 58f
3:10am  -  mph 1002.4mb 60f
3:00am  -  1 mph 1002.4mb 62f
2:50am  -  3 mph 1002.7mb 62f
2:40am 3 5 mph 1003mb 62f
2:30am 2 5 mph 1003.4mb 62f
2:20am 3 7 mph 1003.4mb 63f
2:10am 3 6 mph 1003.4mb 63f
2:00am 5 6 mph 1003.4mb 63f
1:50am 3 6 mph 1003.4mb 62f
1:40am 2 5 mph 1003.4mb 62f
1:30am 3 6 mph 1003.4mb 62f